{"data":{"norad_id":64610,"intl_designator":"2025-137S","name":"STARLINK-34569","alt_names":[],"object_type":"PAYLOAD","status":"ACTIVE","operator":null,"country":"US","launch_date":"2025-06-25","launch_site_code":"AFETR","launch_vehicle":null,"mission":null,"orbit_class":"UNKNOWN","rcs_meters":null,"size_class":null,"mass_kg":null,"dimensions":null,"purposes":["comms"],"wikipedia_slug":null,"has_3d_model":false,"image_url":null,"decayed_at":null,"tle_current":{"epoch":"2026-05-24T22:13:27.943104Z","epoch_age_seconds":75309,"freshness":"FRESH","line1":"1 64610U 25137S   26144.92601786  .00011762  00000+0  40852-3 0  9999","line2":"2 64610  53.1590 341.3652 0001220  92.2127 267.9013 15.30206350 52408","mean_motion":15.3020635,"eccentricity":0.000122,"inclination_deg":53.159,"raan_deg":341.3652,"arg_perigee_deg":92.2127,"mean_anomaly_deg":267.9013,"bstar":0.00040852,"rev_number":5240,"period_min":94.104955191174,"perigee_km":474.36000289012,"apogee_km":476.03221616885,"semimajor_km":6853.3331095295,"source":"CELESTRAK","updated_at":"2026-05-25T13:38:20.496563Z"}}}